Aspen, CO

12:25 AM MDT on October 18, 2017 (GMT -0600)
Aspen-Pitkin County / Sardy Field

Weather History for KASE - December, 2012

Change the Weather History Date:

Monday, December 10, 2012

  Actual Average Record
Temperature  
Mean Temperature 4 °F 20 °F  
Max Temperature 14 °F 32 °F 55 °F (1981)
Min Temperature -6 °F 9 °F -14 °F (2013)
Degree Days  
Heating Degree Days 61 45  
Month to date heating degree days 373 437  
Since 1 July heating degree days 2265 2763  
Cooling Degree Days 0 0  
Month to date cooling degree days 0 0  
Year to date cooling degree days 106 39  
Moisture  
Dew Point 5 °F    
Average Humidity 79    
Maximum Humidity 92    
Minimum Humidity 65    
Precipitation  
Precipitation 0.04 in 0.04 in 0.13 in (2000)
Month to date precipitation 0.29 0.36  
Year to date precipitation 12.03 16.48  
Sea Level Pressure  
Sea Level Pressure 30.12 in    
Wind  
Wind Speed 2 mph (West)    
Max Wind Speed 12 mph    
Max Gust Speed 14 mph    
Visibility 5 miles    
Events Snow    
T = Trace of Precipitation, MM = Missing Value Source: NWS Daily Summary

Daily Weather History Graph

Daily Weather History Graph

Search for Another Location

Airport or City:

Trip Planner

Search our weather history database for the weather conditions in past years. The results will help you decide how hot, cold, wet, or windy it might be!

Date:

Astronomy

Dec. 10, 2012 Rise Set
Actual Time 7:16 AM MST 4:44 PM MST
Civil Twilight 6:46 AM MST 5:14 PM MST
Nautical Twilight 6:12 AM MST 5:48 PM MST
Astronomical Twilight 5:40 AM MST 6:20 PM MST
Moon 4:04 AM MST (12/10) 2:35 PM MST (12/10)
Length of Visible Light 10h 28m
Length of Day
9h 28m
Waning Crescent, 10% of the Moon is Illuminated
Dec 10
Waning Crescent
Dec 13
New
Dec 19
First Quarter
Dec 28
Full
Jan 4
Last Quarter

Hourly Weather History & Observations

Time (MST) Temp. Windchill Dew Point Humidity Pressure Visibility Wind Dir Wind Speed Gust Speed Precip Events Conditions
12:53 AM -0.9 °F -8.9 °F -9.0 °F 69% 30.33 in 10.0 mi SSW 3.5 mph - N/A   Overcast
1:53 AM 1.9 °F -7.6 °F -7.1 °F 66% 30.32 in 10.0 mi SW 4.6 mph - N/A   Overcast
2:53 AM 1.9 °F -9.2 °F -7.1 °F 66% 30.32 in 10.0 mi SSW 5.8 mph - N/A   Mostly Cloudy
3:53 AM 3.0 °F -4.4 °F -4.0 °F 73% 30.29 in 10.0 mi South 3.5 mph - N/A   Overcast
4:53 AM 5.0 °F - -2.9 °F 70% 30.27 in 10.0 mi Calm Calm - N/A   Overcast
5:53 AM 7.0 °F -3.3 °F -0.9 °F 70% 30.30 in 10.0 mi South 5.8 mph - N/A   Overcast
6:53 AM 8.1 °F - -0.0 °F 70% 30.29 in 10.0 mi Calm Calm - N/A   Overcast
7:53 AM 8.1 °F - -0.9 °F 67% 30.25 in 10.0 mi Calm Calm - N/A   Overcast
8:53 AM 9.0 °F - 1.0 °F 70% 30.24 in 10.0 mi Calm Calm - N/A   Overcast
9:53 AM 10.0 °F -2.9 °F 1.0 °F 67% 30.27 in 6.0 mi NNE 9.2 mph - N/A   Haze
10:33 AM 10.4 °F - 3.2 °F 73% 30.02 in 3.0 mi Calm Calm - 0.00 in Snow Light Snow
10:53 AM 9.0 °F - 3.9 °F 80% 30.30 in 2.0 mi Calm Calm - 0.00 in Snow Light Snow
11:24 AM 10.4 °F - 5.0 °F 79% 30.02 in 1.0 mi Calm Calm - 0.01 in Snow Light Snow
11:53 AM 12.0 °F - 7.0 °F 80% 30.26 in 1.0 mi Calm Calm - 0.01 in Snow Light Snow
12:16 PM 10.4 °F 4.0 °F 6.8 °F 85% 30.01 in 1.0 mi NW 3.5 mph - 0.01 in Snow Light Snow
12:23 PM 12.2 °F - 6.8 °F 79% 30.00 in 2.5 mi Calm Calm - 0.01 in Snow Light Snow
12:28 PM 12.2 °F - 6.8 °F 79% 30.00 in 3.0 mi Calm Calm - 0.01 in Snow Light Snow
12:45 PM 12.2 °F 6.1 °F 6.8 °F 79% 29.99 in 1.8 mi NW 3.5 mph - 0.01 in Snow Light Snow
12:53 PM 12.9 °F - 7.0 °F 77% 30.21 in 3.0 mi Calm Calm - 0.01 in Snow Light Snow
1:53 PM 14.0 °F - 7.0 °F 74% 30.15 in 8.0 mi Calm Calm - 0.00 in   Overcast
2:53 PM 14.0 °F - 7.0 °F 74% 30.14 in 8.0 mi Calm Calm - N/A   Overcast
3:53 PM 12.9 °F 6.9 °F 8.1 °F 81% 30.15 in 2.0 mi NNW 3.5 mph - 0.00 in Snow Light Snow
4:16 PM 12.2 °F - 8.6 °F 85% 29.95 in 6.0 mi Calm Calm - 0.00 in Snow Light Snow
4:53 PM 12.9 °F 6.9 °F 8.1 °F 81% 30.12 in 3.0 mi NNW 3.5 mph - 0.00 in Snow Light Snow
5:53 PM 12.9 °F 5.2 °F 10.0 °F 88% 30.12 in 1.0 mi North 4.6 mph - 0.01 in Snow Light Snow
6:24 PM 12.2 °F 6.1 °F 8.6 °F 85% 29.95 in 3.0 mi North 3.5 mph - 0.00 in Snow Light Snow
6:49 PM 12.2 °F - 8.6 °F 85% 29.95 in 2.5 mi Calm Calm - 0.00 in Snow Light Snow
6:53 PM 12.0 °F - 9.0 °F 88% 30.12 in 3.0 mi Calm Calm - 0.00 in Snow Light Snow
7:53 PM 12.0 °F - 9.0 °F 88% 30.12 in 3.0 mi Calm Calm - 0.01 in Snow Light Snow
8:06 PM 12.2 °F 4.3 °F 8.6 °F 85% 29.95 in 4.0 mi NNW 4.6 mph - 0.00 in Snow Light Snow
8:29 PM 12.2 °F - 8.6 °F 85% 29.97 in 1.8 mi Calm Calm - 0.00 in Snow Light Snow
8:53 PM 12.0 °F 5.9 °F 8.1 °F 84% 30.13 in 6.0 mi NW 3.5 mph - 0.00 in Snow Light Snow
9:53 PM 12.0 °F 5.9 °F 8.1 °F 84% 30.15 in 3.0 mi SSW 3.5 mph - 0.00 in Snow Light Snow
10:34 PM 12.2 °F - 8.6 °F 85% 29.98 in 5.0 mi Calm Calm - 0.00 in Snow Light Snow
10:53 PM 12.0 °F 4.1 °F 8.1 °F 84% 30.14 in 5.0 mi SW 4.6 mph - 0.00 in Snow Light Snow
11:05 PM 12.2 °F 4.3 °F 8.6 °F 85% 29.98 in 4.0 mi SSW 4.6 mph - 0.00 in Snow Light Snow
11:18 PM 12.2 °F - 8.6 °F 85% 29.98 in 4.0 mi Calm Calm - 0.00 in Snow Light Snow
11:42 PM 12.2 °F - 8.6 °F 85% 29.97 in 8.0 mi Calm Calm - 0.00 in Snow Light Snow
11:53 PM 12.9 °F - 8.1 °F 81% 30.10 in 4.0 mi Calm Calm - 0.00 in Snow Light Snow